FW7746 Weather Reports


time (UTC)temp
C
wind
direction
speed
KPH
gust
KPH
rain 1hr
cm
rain 24hr
cm
rain mn
cm
humidity
%
barometer
mb
20260904232604 13 170 0.0 1.6 0.00 0.13 0.13 65 1013.2
20260904232103 13 170 0.0 4.8 0.00 0.13 0.13 65 1013.2
20260904231604 14 187 1.6 4.8 0.00 0.13 0.13 64 1013.3
20260904231103 14 193 0.0 1.6 0.00 0.13 0.13 64 1013.2
20260904230104 13 200 0.0 0.0 0.05 0.13 0.13 71 1013.1
20260904225604 13 200 0.0 0.0 0.10 0.13 0.13 68 1013.1
20260904225103 13 200 0.0 0.0 0.10 0.13 0.13 72 1013.1
20260904224603 12 200 0.0 3.2 0.13 0.13 0.13 72 1013.1
20260904223603 12 204 0.0 4.8 0.13 0.13 0.13 70 1013.1
20260904223103 12 237 0.0 0.0 0.13 0.13 0.13 79 1013.2
20260904222603 12 238 0.0 3.2 0.13 0.13 0.13 79 1013.1
20260904222103 11 236 0.0 4.8 0.13 0.13 0.13 79 1013.2
20260904221603 10 237 0.0 0.0 0.13 0.13 0.13 87 1013.3
20260904221103 9 237 0.0 0.0 0.13 0.13 0.13 82 1013.3
20260904220603 9 234 0.0 0.0 0.10 0.10 0.10 82 1013.7
20260904220104 10 194 0.0 4.8 0.08 0.08 0.08 82 1014.2
20260904215603 10 139 1.6 4.8 0.03 0.03 0.03 76 1014.4
20260904215103 11 225 4.8 19.3 0.03 0.03 0.03 71 1014.0
20260904214604 12 242 1.6 16.1 0.00 0.00 0.00 62 1013.7
20260904214103 13 188 0.0 4.8 0.00 0.00 0.00 59 1013.3
20260904213603 13 150 0.0 1.6 0.00 0.00 0.00 58 1013.2
20260904212603 14 178 0.0 4.8 0.00 0.00 0.00 51 1012.8
20260904211603 15 206 0.0 1.6 0.00 0.00 0.00 50 1012.8
20260904210603 15 241 0.0 4.8 0.00 0.00 0.00 51 1012.7
20260904210103 15 137 0.0 3.2 0.00 0.00 0.00 50 1012.8
20260904205603 15 139 0.0 4.8 0.00 0.00 0.00 49 1012.7
20260904204603 16 127 0.0 4.8 0.00 0.00 0.00 51 1012.8
20260904203605 15 138 0.0 4.8 0.00 0.00 0.00 54 1012.7
20260904203103 15 151 0.0 4.8 0.00 0.00 0.00 54 1012.8
20260904202603 15 91 0.0 4.8 0.00 0.00 0.00 55 1012.9
20260904202104 14 202 0.0 1.6 0.00 0.00 0.00 55 1013.0
20260904201603 13 251 1.6 9.7 0.00 0.00 0.00 55 1013.0
20260904201103 13 176 0.0 1.6 0.00 0.00 0.00 58 1013.1
20260904200603 13 175 1.6 8.0 0.00 0.00 0.00 58 1013.0
20260904200104 12 87 0.0 4.8 0.00 0.00 0.00 57 1013.1
20260904195603 13 133 0.0 9.7 0.00 0.00 0.00 56 1013.2
20260904194604 12 130 0.0 0.0 0.00 0.00 0.00 62 1013.4
20260904194103 12 123 0.0 0.0 0.00 0.00 0.00 62 1013.5
20260904193603 12 170 0.0 1.6 0.00 0.00 0.00 61 1013.7
20260904192603 12 89 0.0 1.6 0.00 0.00 0.00 61 1013.7
20260904192104 11 209 0.0 4.8 0.00 0.00 0.00 62 1013.8
20260904191603 11 233 0.0 4.8 0.00 0.00 0.00 63 1013.9
20260904191103 11 163 1.6 8.0 0.00 0.00 0.00 63 1014.0
20260904190603 11 138 0.0 4.8 0.00 0.00 0.00 63 1014.0
20260904190104 11 199 0.0 4.8 0.00 0.00 0.00 65 1014.0
20260904185103 10 204 0.0 4.8 0.00 0.00 0.00 65 1014.2
20260904184603 10 118 1.6 4.8 0.00 0.00 0.00 66 1014.1
20260904184104 10 183 0.0 3.2 0.00 0.00 0.00 66 1014.1
20260904183603 10 138 0.0 0.0 0.00 0.00 0.00 68 1014.1
20260904183103 9 181 0.0 4.8 0.00 0.00 0.00 68 1014.0
20260904182104 9 211 1.6 14.5 0.00 0.00 0.00 68 1014.0
20260904181603 10 243 1.6 11.3 0.00 0.00 0.00 68 1013.9
20260904181103 10 187 1.6 8.0 0.00 0.00 0.00 69 1013.8
20260904180104 10 141 0.0 4.8 0.00 0.00 0.00 68 1013.7
20260904175603 10 184 0.0 1.6 0.00 0.00 0.00 69 1013.6
20260904175103 10 255 1.6 9.7 0.00 0.00 0.00 68 1013.5
20260904174603 10 153 0.0 8.0 0.00 0.00 0.00 68 1013.5
20260904174103 10 214 0.0 4.8 0.00 0.00 0.00 68 1013.4
20260904173103 10 217 0.0 4.8 0.00 0.00 0.00 67 1013.3
20260904172603 10 191 0.0 4.8 0.00 0.00 0.00 67 1013.3
20260904172103 10 258 0.0 4.8 0.00 0.00 0.00 68 1013.2
20260904171603 10 135 0.0 0.0 0.00 0.00 0.00 69 1013.1
20260904171103 10 134 0.0 4.8 0.00 0.00 0.00 69 1013.1
20260904170603 10 135 0.0 1.6 0.00 0.00 0.00 69 1013.1
20260904165603 9 161 0.0 4.8 0.00 0.00 0.00 69 1013.1
20260904165104 9 183 0.0 3.2 0.00 0.00 0.00 69 1013.1
20260904164604 9 190 0.0 3.2 0.00 0.00 0.00 69 1013.0
20260904164103 9 180 0.0 3.2 0.00 0.00 0.00 68 1013.0
20260904163603 9 236 0.0 12.9 0.00 0.00 0.00 68 1013.0
20260904163103 9 204 0.0 3.2 0.00 0.00 0.00 68 1012.9
20260904162103 9 244 0.0 4.8 0.00 0.00 0.00 69 1012.8
20260904161103 9 209 0.0 1.6 0.00 0.00 0.00 71 1012.8
20260904160603 8 249 0.0 4.8 0.00 0.00 0.00 72 1012.9
20260904160103 8 239 0.0 9.7 0.00 0.00 0.00 71 1012.8
20260904155603 8 144 1.6 8.0 0.00 0.00 0.00 72 1012.8
20260904154603 8 218 0.0 1.6 0.00 0.00 0.00 73 1012.7
20260904154103 8 227 0.0 4.8 0.00 0.00 0.00 73 1012.7
20260904153603 8 155 0.0 3.2 0.00 0.00 0.00 73 1012.7
20260904153103 8 211 0.0 1.6 0.00 0.00 0.00 73 1012.7
20260904152603 8 232 0.0 0.0 0.00 0.00 0.00 73 1012.7
20260904152103 8 232 0.0 1.6 0.00 0.00 0.00 73 1012.7
20260904151604 8 234 0.0 1.6 0.00 0.00 0.00 73 1012.8
20260904151104 8 245 1.6 4.8 0.00 0.00 0.00 72 1012.7
20260904150104 8 156 0.0 3.2 0.00 0.00 0.00 72 1012.6
20260904145603 8 212 0.0 8.0 0.00 0.00 0.00 72 1012.6
20260904145104 8 154 0.0 4.8 0.00 0.00 0.00 73 1012.5
20260904144604 8 170 1.6 8.0 0.00 0.00 0.00 73 1012.5
20260904144103 8 188 1.6 8.0 0.00 0.00 0.00 74 1012.4
20260904143603 7 170 1.6 4.8 0.00 0.00 0.00 75 1012.3
20260904143104 7 160 1.6 8.0 0.00 0.00 0.00 75 1012.2
20260904142103 7 218 1.6 4.8 0.00 0.00 0.00 77 1011.9
20260904141603 7 227 0.0 3.2 0.00 0.00 0.00 78 1011.7
20260904141103 6 199 0.0 4.8 0.00 0.00 0.00 79 1011.6
20260904140604 6 198 0.0 1.6 0.00 0.00 0.00 79 1011.8
20260904140104 6 200 0.0 1.6 0.00 0.00 0.00 79 1011.9
20260904135604 6 181 0.0 4.8 0.00 0.00 0.00 80 1011.8
20260904134603 6 151 0.0 3.2 0.00 0.00 0.00 81 1011.7
20260904134103 6 196 0.0 1.6 0.00 0.00 0.00 81 1011.7
20260904133603 6 167 0.0 0.0 0.00 0.00 0.00 81 1011.7
20260904133104 6 167 0.0 0.0 0.00 0.00 0.00 81 1011.7
20260904132603 6 167 0.0 0.0 0.00 0.00 0.00 81 1011.7
20260904132104 6 167 0.0 0.0 0.00 0.00 0.00 81 1011.7
20260904131603 6 167 0.0 0.0 0.00 0.00 0.00 81 1011.6
20260904131103 6 167 0.0 0.0 0.00 0.00 0.00 80 1011.7
20260904130603 6 167 0.0 0.0 0.00 0.00 0.00 80 1011.7
20260904130103 6 167 0.0 0.0 0.00 0.00 0.00 80 1011.6
20260904125604 6 167 0.0 0.0 0.00 0.00 0.00 80 1011.4
20260904125103 6 167 0.0 0.0 0.00 0.00 0.00 80 1011.4
20260904124103 6 167 0.0 0.0 0.00 0.00 0.00 80 1011.4
20260904123603 6 167 0.0 0.0 0.00 0.00 0.00 80 1011.4
20260904123103 6 167 0.0 0.0 0.00 0.00 0.00 79 1011.4
20260904122604 6 167 0.0 0.0 0.00 0.00 0.00 79 1011.4
20260904122103 6 167 0.0 0.0 0.00 0.00 0.00 79 1011.4
20260904121603 6 167 0.0 0.0 0.00 0.00 0.00 80 1011.4
20260904121103 6 167 0.0 0.0 0.00 0.00 0.00 80 1011.4
20260904120604 6 167 0.0 0.0 0.00 0.00 0.00 79 1011.4
20260904120104 6 167 0.0 0.0 0.00 0.00 0.00 79 1011.1
20260904115603 7 167 0.0 0.0 0.00 0.00 0.00 79 1011.1
20260904115103 7 167 0.0 0.0 0.00 0.00 0.00 79 1011.2
20260904114603 7 167 0.0 0.0 0.00 0.00 0.00 79 1011.3
20260904114104 7 167 0.0 0.0 0.00 0.00 0.00 79 1011.2
20260904113604 7 167 0.0 0.0 0.00 0.00 0.00 79 1011.1
20260904113104 7 167 0.0 0.0 0.00 0.00 0.00 79 1011.0
20260904112103 7 167 0.0 0.0 0.00 0.00 0.00 78 1010.9
20260904111603 7 167 0.0 0.0 0.00 0.00 0.00 79 1010.9
20260904111104 7 167 0.0 0.0 0.00 0.00 0.00 78 1011.0
20260904105103 7 166 0.0 0.0 0.00 0.00 0.00 78 1010.7
20260904104603 7 166 0.0 0.0 0.00 0.00 0.00 78 1010.7
20260904104103 7 166 0.0 0.0 0.00 0.00 0.00 77 1010.7
20260904103604 7 166 0.0 0.0 0.00 0.00 0.00 77 1010.6
20260904103103 7 166 0.0 4.8 0.00 0.00 0.00 77 1010.7
20260904102603 7 188 0.0 1.6 0.00 0.00 0.00 77 1010.8
20260904102104 7 212 0.0 0.0 0.00 0.00 0.00 77 1010.8
20260904101603 7 212 0.0 1.6 0.00 0.00 0.00 77 1010.8
20260904101103 7 213 0.0 4.8 0.00 0.00 0.00 77 1010.8
20260904100603 7 225 0.0 0.0 0.00 0.00 0.00 77 1010.8
20260904095603 7 234 0.0 0.0 0.00 0.00 0.00 77 1010.5
20260904095103 7 234 1.6 8.0 0.00 0.00 0.00 77 1010.4
20260904094603 7 207 0.0 1.6 0.00 0.00 0.00 77 1010.5
20260904094104 7 189 0.0 3.2 0.00 0.00 0.00 77 1010.5
20260904093603 7 194 0.0 4.8 0.00 0.00 0.00 78 1010.5
20260904093103 7 191 0.0 0.0 0.00 0.00 0.00 78 1010.5
20260904092603 7 190 0.0 0.0 0.00 0.00 0.00 78 1010.6
20260904092104 7 192 0.0 3.2 0.00 0.00 0.00 77 1010.5
20260904091603 7 186 0.0 3.2 0.00 0.00 0.00 76 1010.5
20260904090103 7 223 0.0 1.6 0.00 0.00 0.00 76 1010.5
20260904085604 7 216 1.6 4.8 0.00 0.00 0.00 76 1010.5
20260904085103 7 158 0.0 4.8 0.00 0.00 0.00 76 1010.5
20260904084603 8 202 0.0 4.8 0.00 0.00 0.00 76 1010.6
20260904084104 8 196 0.0 0.0 0.00 0.00 0.00 76 1010.5
20260904083603 8 196 0.0 4.8 0.00 0.00 0.00 75 1010.5
20260904083103 8 200 0.0 0.0 0.00 0.00 0.00 76 1010.4
20260904082103 8 199 0.0 1.6 0.00 0.00 0.00 76 1010.4
20260904081604 8 196 0.0 3.2 0.00 0.00 0.00 76 1010.3
20260904081103 8 162 0.0 0.0 0.00 0.00 0.00 76 1010.3
20260904080604 8 161 0.0 0.0 0.00 0.00 0.00 76 1010.3
20260904080103 8 161 0.0 0.0 0.00 0.00 0.00 76 1010.3
20260904075604 8 161 0.0 0.0 0.00 0.00 0.00 76 1010.3
20260904074604 8 161 0.0 0.0 0.00 0.00 0.00 76 1010.2
20260904074103 8 162 0.0 0.0 0.00 0.00 0.00 76 1010.3
20260904073604 8 162 0.0 0.0 0.00 0.00 0.00 76 1010.2
20260904072605 8 161 0.0 0.0 0.00 0.00 0.00 76 1010.2
20260904072103 8 161 0.0 0.0 0.00 0.00 0.00 75 1010.1
20260904071604 8 161 0.0 0.0 0.00 0.00 0.00 75 1010.1
20260904071103 8 161 0.0 0.0 0.00 0.00 0.00 74 1010.2
20260904065604 8 161 0.0 0.0 0.00 0.00 0.00 73 1010.3
20260904065103 8 161 0.0 0.0 0.00 0.00 0.00 73 1010.2
20260904064604 9 161 0.0 0.0 0.00 0.00 0.00 72 1010.2
20260904064103 9 161 0.0 0.0 0.00 0.00 0.00 72 1010.1
20260904063603 9 161 0.0 3.2 0.00 0.00 0.00 72 1010.1
20260904063104 9 167 0.0 0.0 0.00 0.00 0.00 72 1010.1
20260904062603 9 167 0.0 0.0 0.00 0.00 0.00 72 1010.2
20260904062104 9 167 0.0 0.0 0.00 0.00 0.00 72 1010.2
20260904061103 9 167 0.0 0.0 0.00 0.00 0.00 71 1010.2
20260904060603 9 167 0.0 1.6 0.00 0.00 0.00 71 1010.3
20260904060104 9 174 0.0 0.0 0.00 0.00 0.00 71 1010.2
20260904055104 9 174 0.0 0.0 0.00 0.00 0.00 70 1010.1
20260904054603 9 174 0.0 1.6 0.00 0.00 0.00 70 1010.1
20260904054103 10 174 0.0 0.0 0.00 0.00 0.00 69 1010.2
20260904053604 10 174 0.0 0.0 0.00 0.00 0.00 69 1010.2
20260904053104 10 174 0.0 0.0 0.00 0.00 0.00 68 1010.2
20260904052603 10 174 0.0 0.0 0.00 0.00 0.00 68 1010.2
20260904052104 10 175 0.0 0.0 0.00 0.00 0.00 67 1010.2
20260904051604 10 175 0.0 0.0 0.00 0.00 0.00 67 1010.2
20260904051103 10 175 0.0 0.0 0.00 0.00 0.00 67 1010.4
20260904050103 10 173 0.0 0.0 0.00 0.00 0.00 66 1010.4
20260904045604 10 173 0.0 0.0 0.00 0.00 0.00 66 1010.3
20260904045103 10 173 0.0 0.0 0.00 0.00 0.00 65 1010.2
20260904044603 10 173 0.0 0.0 0.00 0.00 0.00 65 1010.3
20260904044104 10 173 0.0 0.0 0.00 0.00 0.00 64 1010.2
20260904043604 10 173 0.0 0.0 0.00 0.00 0.00 64 1010.2
20260904043103 10 173 0.0 0.0 0.00 0.00 0.00 64 1010.1
20260904042604 10 173 0.0 0.0 0.00 0.00 0.00 64 1010.0
20260904042103 10 173 0.0 0.0 0.00 0.00 0.00 65 1009.9
20260904041103 10 173 0.0 0.0 0.00 0.00 0.00 67 1009.9
20260904040603 10 173 0.0 0.0 0.00 0.00 0.00 66 1009.9
20260904035604 10 173 0.0 0.0 0.00 0.00 0.00 63 1009.9
20260904035103 11 173 0.0 0.0 0.00 0.00 0.00 63 1009.8
20260904034603 11 173 0.0 0.0 0.00 0.00 0.00 62 1009.7
20260904034104 11 173 0.0 0.0 0.00 0.00 0.00 61 1009.6
20260904033103 11 173 0.0 0.0 0.00 0.00 0.00 59 1009.6
20260904032103 11 173 0.0 0.0 0.00 0.00 0.00 59 1009.6
20260904031603 11 173 0.0 0.0 0.00 0.00 0.00 58 1009.6
20260904031104 11 173 0.0 0.0 0.00 0.03 0.00 57 1009.6
20260904030604 11 173 0.0 0.0 0.00 0.03 0.00 56 1009.4
20260904030104 12 173 0.0 0.0 0.00 0.03 0.00 55 1009.4
20260904025603 12 173 0.0 0.0 0.00 0.03 0.00 55 1009.3
20260904025103 12 173 0.0 0.0 0.00 0.03 0.00 55 1009.3
20260904024604 12 173 0.0 0.0 0.00 0.03 0.00 54 1009.1
20260904024103 12 173 0.0 0.0 0.00 0.03 0.00 54 1009.0
20260904023103 12 173 0.0 0.0 0.00 0.03 0.00 53 1009.0
20260904022604 12 173 0.0 0.0 0.00 0.03 0.00 53 1009.0
20260904022103 12 172 0.0 0.0 0.00 0.03 0.00 52 1009.0
20260904021603 12 173 0.0 0.0 0.00 0.03 0.00 52 1009.0
20260904021104 12 172 0.0 0.0 0.00 0.03 0.00 51 1009.0
20260904020603 12 172 0.0 0.0 0.00 0.03 0.00 51 1009.0
20260904015603 13 172 0.0 0.0 0.00 0.03 0.00 51 1009.1
20260904015103 13 172 0.0 0.0 0.00 0.03 0.00 50 1009.1
20260904014104 13 171 0.0 3.2 0.00 0.03 0.00 49 1009.1
20260904013604 13 180 0.0 0.0 0.00 0.03 0.00 50 1009.0
20260904013103 13 181 0.0 0.0 0.00 0.05 0.00 50 1009.0
20260904012603 13 181 0.0 0.0 0.00 0.05 0.00 49 1009.0
20260904012103 13 180 0.0 3.2 0.00 0.08 0.00 48 1009.0
20260904011603 13 207 0.0 0.0 0.00 0.10 0.00 49 1008.9
20260904011104 13 207 0.0 0.0 0.00 0.15 0.00 49 1008.8
20260904010604 13 207 0.0 1.6 0.00 0.18 0.00 48 1008.7
20260904010104 13 209 0.0 4.8 0.00 0.23 0.00 48 1008.8
20260904005603 13 195 0.0 1.6 0.00 0.23 0.00 47 1008.6
20260904005104 13 190 0.0 0.0 0.00 0.25 0.00 47 1008.8
20260904004603 13 182 0.0 1.6 0.00 0.28 0.00 47 1008.8
20260904003604 13 189 0.0 0.0 0.00 0.28 0.00 46 1008.9
20260904003103 13 215 0.0 4.8 0.00 0.28 0.00 47 1008.9
20260904002604 14 188 0.0 1.6 0.00 0.28 0.00 46 1008.9
20260904001603 13 212 0.0 0.0 0.00 0.28 0.00 46 1008.8
20260904001104 14 211 1.6 8.0 0.00 0.28 0.00 43 1008.9
20260904000603 15 218 1.6 11.3 0.00 0.28 0.00 43 1008.8
20260904000104 15 155 0.0 1.6 0.00 0.28 0.00 44 1008.8
20260903235604 15 163 0.0 3.2 0.00 0.28 0.00 44 1008.8
20260903235104 15 113 0.0 0.0 0.00 0.28 0.00 45 1008.8
20260903234103 15 151 0.0 3.2 0.00 0.28 0.00 45 1008.8
20260903233603 15 52 1.6 9.7 0.00 0.28 0.00 47 1008.9
20260903233103 14 222 1.6 8.0 0.00 0.28 0.00 48 1008.9